Location: Poughquag
(41.6090°N, 73.6820°W)
Time: 03:15:15
(UTC-04:00)

Vanguard 2 - Pass Details

Date: 03 June 2020
Orbit: 552 x 2938 km, 32.9° (Epoch: 06 July)

Event Time Altitude Azimuth Distance (km) Brightness Sun altitude
Rises 18:42:11 0° 238° (WSW) 6,609 12.9 16.6°
Reaches altitude 10° 18:47:09 10° 233° (SW) 5,383 12.4 15.8°
Maximum altitude 19:01:04 46° 168° (SSE) 2,517 10.1 13.3°
Drops below altitude 10° 19:10:02 10° 99° (E) 3,538 10.3 11.7°
Sets 19:12:36 0° 92° (E) 4,239 10.7 11.2°
